This demonstration page uses our WeatherBlox Daily Observations layout. Learn more.

Hourly Observations for May 8, 2015

Temp ( °F °C ) Dew Point ( °F °C ) Humidity (%) Winds ( mph kmh ) Pressure ( in mb ) Visibility ( mi km ) Precip ( " mm )
12:15 am 00:15 Clear 52 11 45 7 77 77 N 12 19 30 1016 10 16.09344 0 0
12:35 am 00:35 Partly Cloudy 52 11 45 7 77 77 N 14 22 30 1016 10 16.09344 0 0
12:55 am 00:55 Mostly Cloudy 50 10 45 7 82 82 N 15 24 30 1016 10 16.09344 0 0
1:15 am 01:15 Mostly Cloudy 50 10 43 6 76 76 N 13 20 30.03 1017 10 16.09344 0 0
1:35 am 01:35 Cloudy 50 10 45 7 82 82 N 18 30 30 1016 10 16.09344 0 0
1:55 am 01:55 Mostly Cloudy 50 10 43 6 76 76 N 16 26 30.03 1017 10 16.09344 0 0
2:15 am 02:15 Partly Cloudy 48 9 43 6 82 82 NNE 13 20 30.03 1017 10 16.09344 0 0
2:35 am 02:35 Clear 48 9 43 6 82 82 NNE 7 11 30.06 1018 10 16.09344 0 0
2:55 am 02:55 Partly Cloudy 48 9 43 6 82 82 N 8 13 30.03 1017 10 16.09344 0 0
3:15 am 03:15 Partly Cloudy 46 8 43 6 87 87 N 10 17 30.03 1017 10 16.09344 0 0
3:35 am 03:35 Partly Cloudy 46 8 43 6 87 87 N 6 9 30.06 1018 10 16.09344 0 0
3:55 am 03:55 Partly Cloudy 46 8 43 6 87 87 N 6 9 30.06 1018 10 16.09344 0 0
4:15 am 04:15 Partly Cloudy 46 8 43 6 87 87 N 6 9 30.06 1018 10 16.09344 0 0
4:35 am 04:35 Clear 45 7 43 6 93 93 N 6 9 30.06 1018 10 16.09344 0 0
4:55 am 04:55 Clear 45 7 43 6 93 93 N 8 13 30.06 1018 10 16.09344 0 0
5:15 am 05:15 Clear 45 7 43 6 93 93 N 6 9 30.06 1018 10 16.09344 0 0
5:35 am 05:35 Clear 45 7 41 5 87 87 Calm 30.06 1018 10 16.09344 0 0
5:55 am 05:55 Clear 45 7 41 5 87 87 Calm 30.09 1019 10 16.09344 0 0
6:15 am 06:15 Clear 45 7 43 6 93 93 Calm 30.09 1019 10 16.09344 0 0
6:35 am 06:35 Sunny 43 6 41 5 93 93 NNW 6 9 30.12 1020 10 16.09344 0 0
6:55 am 06:55 Sunny 45 7 41 5 87 87 Calm 30.09 1019 10 16.09344 0 0
7:15 am 07:15 Sunny 45 7 41 5 87 87 N 3 6 30.09 1019 10 16.09344 0 0
7:35 am 07:35 Sunny 46 8 45 7 93 93 N 6 9 30.12 1020 10 16.09344 0 0
7:55 am 07:55 Partly Cloudy 48 9 45 7 87 87 NNW 5 7 30.12 1020 10 16.09344 0 0
8:15 am 08:15 Mostly Cloudy 50 10 45 7 82 82 N 8 13 30.15 1021 10 16.09344 0 0
8:35 am 08:35 Partly Cloudy 50 10 45 7 82 82 NNE 10 17 30.12 1020 10 16.09344 0 0
8:55 am 08:55 Partly Cloudy 50 10 45 7 82 82 NE 10 17 30.15 1021 10 16.09344 0 0
9:15 am 09:15 Mostly Cloudy 52 11 43 6 72 72 NNE 8 13 30.12 1020 10 16.09344 0 0
9:35 am 09:35 Cloudy 52 11 43 6 72 72 NE 10 17 30.12 1020 10 16.09344 0 0
9:55 am 09:55 Cloudy 52 11 45 7 77 77 NNE 9 15 30.09 1019 10 16.09344 0 0
10:15 am 10:15 Mostly Cloudy 54 12 43 6 67 67 NE 12 19 30.09 1019 10 16.09344 0 0
10:35 am 10:35 Partly Cloudy 55 13 45 7 67 67 NNE 14 22 30.09 1019 10 16.09344 0 0
10:55 am 10:55 Sunny 55 13 45 7 67 67 NNE 9 15 30.09 1019 10 16.09344 0 0
11:15 am 11:15 Sunny 57 14 43 6 59 59 NNE 15 24 30.03 1017 10 16.09344 0 0
11:35 am 11:35 Sunny 57 14 43 6 59 59 NE 10 17 30.03 1017 10 16.09344 0 0
11:55 am 11:55 Partly Cloudy 59 15 43 6 55 55 NE 14 22 30.03 1017 10 16.09344 0 0
12:15 pm 12:15 Partly Cloudy 59 15 43 6 55 55 NE 14 22 30.03 1017 10 16.09344 0 0
12:35 pm 12:35 Partly Cloudy 59 15 43 6 55 55 NNE 14 22 30.03 1017 10 16.09344 0 0
12:55 pm 12:55 Partly Cloudy 61 16 43 6 52 52 NNE 10 17 30.03 1017 10 16.09344 0 0
1:15 pm 13:15 Mostly Cloudy 61 16 43 6 52 52 NE 12 19 30.03 1017 10 16.09344 0 0
1:35 pm 13:35 Partly Cloudy 63 17 43 6 49 49 NE 9 15 29.97 1015 10 16.09344 0 0
1:55 pm 13:55 Sunny 63 17 43 6 49 49 NNE 8 13 29.97 1015 10 16.09344 0 0
2:15 pm 14:15 Sunny 63 17 43 6 49 49 NE 8 13 29.97 1015 10 16.09344 0 0
2:35 pm 14:35 Sunny 64 18 43 6 46 46 NNE 8 13 29.97 1015 10 16.09344 0 0
2:55 pm 14:55 Sunny 64 18 43 6 46 46 ENE 8 13 29.97 1015 10 16.09344 0 0
3:15 pm 15:15 Sunny 66 19 43 6 43 43 NE 8 13 29.97 1015 10 16.09344 0 0
3:35 pm 15:35 Sunny 66 19 43 6 43 43 E 8 13 29.97 1015 10 16.09344 0 0
3:55 pm 15:55 Sunny 66 19 43 6 43 43 E 10 17 29.94 1014 10 16.09344 0 0
4:15 pm 16:15 Partly Cloudy 66 19 43 6 43 43 E 7 11 29.94 1014 10 16.09344 0 0
4:35 pm 16:35 Partly Cloudy 68 20 43 6 40 40 E 10 17 29.91 1013 10 16.09344 0 0
4:55 pm 16:55 Sunny 66 19 43 6 43 43 E 9 15 29.94 1014 10 16.09344 0 0
5:15 pm 17:15 Sunny 68 20 43 6 40 40 NE 12 19 29.88 1012 10 16.09344 0 0
5:35 pm 17:35 Sunny 66 19 45 7 46 46 E 13 20 29.91 1013 10 16.09344 0 0
5:55 pm 17:55 Partly Cloudy 66 19 46 8 49 49 E 13 20 29.91 1013 10 16.09344 0 0
6:15 pm 18:15 Partly Cloudy 66 19 46 8 49 49 E 15 24 29.91 1013 10 16.09344 0 0
6:35 pm 18:35 Partly Cloudy 64 18 46 8 52 52 ENE 14 22 29.91 1013 10 16.09344 0 0
6:55 pm 18:55 Partly Cloudy 64 18 48 9 56 56 E 14 22 29.94 1014 10 16.09344 0 0
7:15 pm 19:15 Partly Cloudy 64 18 48 9 56 56 ESE 14 22 29.94 1014 10 16.09344 0 0
7:35 pm 19:35 Mostly Cloudy 63 17 48 9 59 59 ESE 13 20 29.94 1014 10 16.09344 0 0
7:55 pm 19:55 Cloudy 63 17 48 9 59 59 ESE 14 22 29.97 1015 10 16.09344 0 0
8:15 pm 20:15 Cloudy 61 16 48 9 63 63 ESE 12 19 30 1016 10 16.09344 0 0
8:35 pm 20:35 Cloudy 61 16 48 9 63 63 ESE 14 22 30 1016 10 16.09344 0 0
8:55 pm 20:55 Mostly Cloudy 59 15 48 9 68 68 E 13 20 30 1016 10 16.09344 0 0
9:15 pm 21:15 Cloudy 59 15 48 9 68 68 E 15 24 30 1016 10 16.09344 0 0
9:35 pm 21:35 Cloudy 59 15 50 10 72 72 E 14 22 30 1016 10 16.09344 0 0
9:55 pm 21:55 Mostly Cloudy 57 14 48 9 72 72 E 18 30 30 1016 10 16.09344 0 0
10:15 pm 22:15 Partly Cloudy 57 14 50 10 77 77 E 13 20 30 1016 10 16.09344 0 0
10:35 pm 22:35 Partly Cloudy 55 13 48 9 77 77 E 12 19 30 1016 10 16.09344 0 0
10:55 pm 22:55 Clear 55 13 48 9 77 77 E 9 15 30 1016 10 16.09344 0 0
11:15 pm 23:15 Clear 54 12 48 9 82 82 E 8 13 30.03 1017 10 16.09344 0 0
11:35 pm 23:35 Partly Cloudy 54 12 48 9 82 82 E 8 13 30.03 1017 10 16.09344 0 0
11:55 pm 23:55 Partly Cloudy 54 12 48 9 82 82 E 8 13 30.03 1017 10 16.09344 0 0

Powered by AerisWeather